Wind_Speed
33 34 34 34 34 35 36 36 37 37 37 38 38 39 39 38 38 38 38 39 40 40 40 38 33 29 29 28 28 28 23 22 21 18 15 16 13 13 13 13 14 14 16 17 17 18 19
36 37 38 38 39 40 41 41 42 42 43 43 43 44 43 42 43 44 42 41 41 41 39 39 38 35 33 32 34 35 33 30 27 26 24 20 18 19 18 15 17 17 15 13 15 13 17
40 40 41 42 43 43 44 44 45 47 48 48 48 48 47 46 47 45 43 42 42 42 42 42 42 41 40 38 37 38 37 37 36 32 31 27 25 22 22 18 19 17 17 12 11 15 17
43 44 45 45 46 47 48 49 49 50 50 49 49 49 50 49 48 46 45 45 46 45 46 46 44 44 44 43 43 42 41 41 42 40 37 34 31 27 27 22 22 20 15 13 10 13 16
45 46 47 47 48 50 52 52 52 51 51 51 52 53 53 53 54 53 52 51 50 49 49 49 49 48 46 44 45 48 48 47 45 44 44 41 38 37 30 30 26 21 18 14 10 10 15
48 50 52 53 55 57 56 56 57 56 57 57 58 58 57 57 57 56 53 53 52 48 45 44 44 42 41 41 39 38 42 43 48 50 48 45 45 43 40 36 33 23 21 19 12 13 8
53 51 53 53 54 55 55 55 55 57 60 61 61 61 62 60 59 58 53 48 44 42 43 40 40 37 35 36 36 36 36 37 39 40 44 49 47 50 46 43 33 31 25 23 17 16 9
53 56 58 59 60 60 60 61 61 62 63 63 63 63 61 61 59 57 51 45 44 42 43 41 42 40 34 34 32 33 33 32 29 30 35 40 49 51 47 46 42 38 33 30 22 18 14
57 59 60 60 60 61 61 62 62 61 61 62 62 62 63 61 57 55 52 49 45 43 42 44 41 42 34 35 38 34 33 30 26 22 20 28 36 43 51 50 47 45 44 37 30 20 21
63 64 66 67 68 68 68 68 68 67 66 66 65 62 63 64 62 59 56 54 50 47 44 50 43 43 43 40 43 38 38 29 29 26 21 25 23 32 39 48 52 48 53 42 36 27 25
66 67 69 70 72 74 75 75 75 74 70 68 68 66 66 66 66 62 60 59 57 54 49 49 47 46 45 45 47 41 40 33 36 32 26 26 23 24 27 40 45 58 50 47 42 35 27
72 72 73 74 74 75 75 75 76 77 75 75 73 70 70 72 71 67 65 64 63 61 50 52 51 47 48 47 49 47 39 35 37 34 35 34 25 23 25 23 32 47 50 49 48 41 30
77 78 80 81 82 83 82 80 80 81 80 78 79 78 77 76 76 73 76 72 71 66 59 58 56 56 55 56 52 48 42 39 39 38 39 38 34 28 25 25 27 27 34 46 48 42 41
83 83 84 86 89 90 91 90 88 88 84 81 82 85 86 78 81 82 82 81 76 70 68 65 64 64 63 61 59 52 45 40 39 39 42 36 34 39 38 33 26 25 22 21 39 51 51
70 71 75 79 82 84 84 84 86 89 90 91 92 93 93 87 86 87 88 86 78 78 74 72 72 70 67 68 65 60 53 49 49 48 45 40 36 40 35 41 32 31 18 28 20 32 45
74 77 81 82 81 80 79 81 82 85 87 88 90 95 97 96 92 91 92 90 89 86 82 79 82 76 72 71 70 68 64 59 56 54 56 49 47 43 38 34 26 29 37 26 21 20 22
73 75 76 77 78 81 82 84 85 86 87 86 86 88 89 92 98 98 96 94 94 95 94 91 88 85 82 79 77 75 72 66 62 59 58 56 54 51 47 35 35 34 33 30 27 20 19
72 75 79 84 87 89 90 91 92 93 94 93 93 93 91 91 93 99 97 98 97 98 98 96 94 91 89 86 82 81 79 79 70 67 66 62 55 55 51 48 46 40 33 28 18 28 24
82 88 93 97 98 100 102 103 102 102 101 99 98 98 96 95 96 96 102 103 103 103 104 102 100 99 97 96 94 88 86 86 80 74 71 67 61 58 62 59 53 45 40 32 27 32 21
94 95 98 105 109 112 113 113 111 110 108 105 101 98 98 96 101 99 99 103 107 107 109 108 107 105 102 101 100 100 95 92 89 83 80 76 70 64 61 67 62 53 47 41 35 26 31
99 97 96 98 102 106 109 109 109 109 108 107 107 107 104 104 101 102 102 102 106 110 111 111 110 107 108 107 106 103 100 96 94 91 88 84 77 74 68 66 69 61 53 46 35 35 29
107 104 96 92 91 90 89 86 86 86 90 92 93 93 98 107 108 107 105 105 106 108 111 113 111 112 113 111 113 110 106 101 99 97 97 91 86 81 73 72 74 66 58 50 46 45 43
104 92 84 80 75 71 68 65 62 62 64 66 71 76 81 82 91 104 110 111 111 111 111 112 112 113 113 112 114 115 114 110 106 104 102 98 94 88 80 80 79 72 54 57 55 52 51
94 84 76 70 65 61 57 54 52 50 51 52 57 60 64 69 72 80 89 103 115 117 116 115 113 112 115 113 114 115 116 116 115 111 108 103 99 94 84 87 86 63 71 71 66 60 56
86 75 67 59 54 52 48 46 45 44 43 44 45 48 53 57 59 65 70 78 92 106 116 121 120 117 115 116 113 113 113 113 112 111 111 107 108 99 95 91 81 77 81 81 76 67 62
79 70 61 56 51 47 43 40 37 34 32 33 33 37 40 41 46 52 56 63 71 81 92 105 111 116 119 119 118 117 113 113 111 111 111 114 110 108 101 95 89 83 83 83 83 76 66
76 66 59 53 51 48 44 41 38 36 33 31 30 28 28 31 37 40 44 49 56 64 71 80 90 99 111 122 124 121 117 116 113 113 112 114 114 111 105 101 94 91 89 86 89 72 73
75 65 59 56 51 47 41 37 35 33 31 29 27 23 22 23 23 27 32 38 44 50 56 64 69 76 85 97 109 116 123 125 122 118 119 120 118 116 108 103 98 94 92 93 87 81 77
69 63 57 54 49 44 38 34 32 30 27 25 23 20 16 15 15 18 22 28 34 39 45 53 57 61 68 74 82 88 100 115 127 126 123 121 117 115 112 107 100 98 97 97 90 87 83
Wind_Direction
251 252 253 255 256 257 259 260 261 262 262 263 264 265 266 266 267 268 269 269 271 270 271 272 270 267 266 267 261 266 259 264 264 258 249 243 238 238 228 234 236 233 236 245 260 270 291
253 254 255 257 257 258 259 260 262 263 264 265 266 267 267 266 267 269 269 270 270 271 271 272 272 270 264 262 263 262 260 258 256 260 256 245 243 239 242 240 246 247 252 268 280 295 296
260 261 260 261 263 262 262 261 261 263 265 265 267 267 267 268 270 271 271 273 273 273 274 272 270 269 267 266 263 261 257 256 255 252 254 255 245 241 243 237 247 250 259 266 294 302 304
267 267 267 268 268 268 269 270 270 269 269 270 270 270 271 271 271 271 271 271 271 271 271 269 267 266 266 265 262 258 257 254 253 252 252 250 252 246 245 241 238 248 251 262 280 302 316
266 266 266 266 267 268 268 267 268 267 268 270 272 273 273 272 272 272 272 273 272 272 271 269 269 268 265 261 258 255 251 250 251 250 249 249 247 250 246 248 244 240 248 247 265 298 319
271 268 268 269 269 271 271 271 270 269 269 270 272 273 272 273 274 274 275 274 272 270 262 261 264 261 257 255 251 249 251 250 244 243 246 245 246 248 248 246 245 244 246 248 239 260 284
273 272 272 271 271 270 269 269 270 270 270 272 273 274 274 273 273 274 271 267 262 254 251 249 250 247 246 249 249 248 247 250 249 247 245 243 242 243 244 246 245 249 245 249 238 251 267
272 272 272 272 271 271 272 272 272 271 270 271 272 273 270 271 270 267 263 255 249 245 249 246 249 246 242 245 250 251 244 242 249 247 243 243 241 243 246 246 243 243 244 244 239 232 244
272 272 273 273 273 274 273 273 274 274 273 271 271 269 268 265 260 260 256 249 244 244 244 243 246 248 236 246 245 241 241 238 236 245 245 244 240 239 239 243 243 239 240 240 236 228 229
277 277 278 279 278 276 275 274 274 274 274 273 271 268 264 263 259 257 253 249 244 242 241 252 240 245 244 237 249 233 237 233 235 239 246 250 246 242 242 239 240 237 236 237 242 234 234
279 279 279 278 278 278 278 276 274 273 269 268 269 267 261 261 258 253 251 250 248 243 239 245 250 239 239 237 241 237 238 236 243 239 242 251 244 247 238 241 242 239 242 239 237 240 234
280 279 280 278 277 276 276 275 276 275 272 269 265 262 261 259 257 255 249 248 246 245 241 243 253 249 241 237 239 244 240 239 245 246 245 244 241 246 244 244 245 245 240 238 237 233 233
283 283 282 281 280 278 276 274 274 273 271 271 268 263 258 256 257 253 254 248 247 244 246 244 244 250 243 243 239 240 238 237 241 241 243 245 243 239 241 244 247 252 252 242 238 233 228
283 283 282 281 280 278 276 273 272 269 267 266 266 264 262 256 255 251 251 252 249 245 246 244 243 242 244 244 244 241 241 242 245 243 245 239 240 241 237 241 246 263 257 256 239 233 230
285 284 284 284 283 279 275 272 271 270 267 265 264 263 264 260 254 251 250 249 248 246 244 243 240 237 241 244 242 242 240 239 242 243 247 244 243 241 243 245 247 252 269 250 249 249 236
288 286 286 284 284 280 277 273 272 269 267 266 264 262 261 259 258 252 249 248 247 244 244 243 242 239 236 240 243 242 240 239 240 244 247 248 249 252 246 247 249 252 251 261 261 248 249
291 289 288 286 284 280 276 274 272 270 267 265 262 261 259 259 254 254 249 245 244 244 242 242 243 243 239 236 237 245 245 239 241 242 246 246 245 254 251 250 250 252 255 254 257 264 262
298 296 294 291 288 284 280 277 273 269 266 264 261 259 257 256 255 252 251 247 243 244 243 241 242 243 247 243 238 241 249 242 242 246 246 244 245 249 250 244 244 248 250 252 249 256 256
300 297 291 287 283 279 275 273 271 269 267 264 261 258 255 253 252 250 249 248 245 242 243 240 240 242 242 245 245 241 243 248 246 246 246 246 243 245 249 246 245 242 248 254 257 254 254
307 299 292 286 284 283 281 279 277 274 272 269 266 262 258 253 251 248 248 247 245 244 242 242 241 240 242 243 244 243 241 244 247 247 245 244 244 245 245 246 243 244 245 243 244 235 241
315 309 303 295 289 285 283 282 280 278 275 271 267 264 260 257 253 250 247 246 245 244 244 243 242 240 240 241 242 242 242 241 243 245 246 245 245 245 245 244 246 242 241 240 236 230 230
319 312 305 299 294 290 287 284 281 276 274 271 269 266 260 257 253 251 248 247 246 244 244 243 243 243 241 240 240 242 242 241 241 242 244 245 245 245 243 244 247 242 239 241 243 236 233
320 315 310 307 303 300 297 293 288 283 278 273 268 265 262 257 252 250 249 246 245 245 244 243 242 241 241 241 241 241 242 242 242 242 243 242 242 242 241 241 241 241 246 246 243 241 236
324 321 318 314 310 306 302 298 294 289 284 276 270 265 260 258 253 248 245 244 245 244 243 244 243 241 241 240 240 241 242 242 243 243 244 243 241 239 236 237 236 236 244 244 243 240 238
330 326 323 319 317 314 310 305 300 295 289 282 276 269 263 259 255 250 246 243 242 242 242 243 243 242 241 242 241 239 240 241 241 241 243 243 244 240 237 237 238 235 239 243 243 243 239
334 333 331 330 329 326 323 319 314 309 300 291 284 277 272 265 256 251 246 242 240 240 239 240 242 241 241 241 240 241 240 239 239 240 241 243 241 241 239 239 241 238 240 243 245 243 242
338 339 339 339 339 337 333 329 325 322 318 311 300 287 277 267 256 251 245 243 240 238 237 238 238 239 239 241 241 240 240 240 240 239 239 241 243 242 239 240 240 240 240 242 243 244 244
342 344 345 346 344 341 339 337 333 329 325 322 316 302 284 274 262 248 239 238 236 236 234 235 236 236 236 236 238 239 240 240 239 239 240 240 241 242 240 240 239 241 241 243 244 244 247
345 346 346 348 348 346 348 346 344 342 336 333 330 320 305 285 269 245 236 234 233 234 233 233 234 232 231 231 233 235 235 235 237 237 237 239 240 243 244 242 237 237 239 243 244 241 242
Height
10958 10958 10957 10957 10957 10957 10957 10957 10956 10956 10956 10957 10956 10956 10956 10957 10957 10956 10956 10956 10955 10955 10954 10955 10956 10957 10957 10957 10957 10956 10958 10958 10958 10959 10959 10959 10960 10961 10963 10963 10963 10964 10963 10962 10961 10957 10952
10950 10950 10950 10950 10950 10949 10949 10949 10948 10948 10948 10947 10947 10947 10947 10948 10948 10948 10948 10948 10947 10946 10946 10946 10947 10947 10949 10950 10950 10950 10951 10951 10953 10953 10954 10955 10956 10956 10957 10959 10958 10959 10960 10958 10958 10954 10948
10942 10942 10941 10941 10940 10939 10939 10939 10938 10937 10937 10937 10936 10935 10936 10936 10936 10937 10939 10939 10937 10937 10936 10936 10937 10938 10939 10940 10942 10941 10943 10944 10945 10948 10947 10950 10951 10951 10952 10955 10954 10955 10955 10955 10954 10951 10945
10934 10933 10932 10931 10930 10929 10928 10928 10927 10927 10926 10926 10925 10925 10925 10926 10925 10927 10929 10929 10928 10928 10926 10925 10927 10927 10928 10930 10931 10931 10932 10935 10936 10937 10940 10943 10945 10947 10946 10949 10950 10950 10952 10952 10952 10950 10948
10925 10923 10922 10921 10920 10918 10917 10916 10916 10915 10915 10915 10914 10914 10914 10914 10914 10915 10918 10917 10916 10917 10914 10912 10916 10917 10917 10917 10919 10919 10921 10923 10925 10928 10930 10935 10936 10937 10943 10942 10943 10946 10948 10949 10949 10947 10945
10914 10912 10911 10909 10908 10906 10904 10903 10903 10902 10901 10901 10900 10900 10901 10901 10900 10902 10905 10905 10904 10905 10902 10902 10906 10908 10907 10906 10907 10909 10909 10910 10913 10916 10919 10924 10927 10929 10933 10936 10938 10942 10943 10945 10947 10944 10946
10902 10900 10899 10897 10895 10892 10890 10889 10888 10888 10886 10885 10885 10884 10885 10887 10886 10888 10892 10892 10893 10893 10891 10893 10894 10897 10898 10898 10898 10899 10900 10901 10902 10905 10908 10913 10916 10916 10921 10928 10935 10936 10937 10939 10942 10942 10944
10889 10887 10885 10883 10881 10879 10877 10876 10874 10873 10872 10871 10869 10868 10868 10871 10871 10874 10877 10879 10881 10883 10882 10883 10882 10886 10890 10890 10888 10890 10891 10892 10894 10896 10898 10900 10903 10909 10914 10918 10925 10928 10931 10931 10936 10940 10942
10876 10873 10869 10867 10865 10863 10861 10860 10858 10857 10856 10855 10855 10853 10851 10854 10857 10859 10862 10865 10870 10872 10871 10872 10874 10873 10882 10880 10879 10880 10882 10885 10886 10888 10889 10889 10894 10897 10901 10905 10913 10917 10919 10924 10929 10935 10937
10860 10857 10853 10850 10847 10845 10843 10840 10839 10839 10838 10837 10837 10837 10835 10834 10840 10845 10847 10851 10856 10859 10862 10852 10867 10865 10868 10872 10866 10874 10871 10877 10879 10880 10882 10881 10886 10888 10892 10895 10898 10905 10902 10919 10924 10931 10932
10844 10840 10836 10833 10829 10826 10823 10821 10820 10818 10819 10818 10817 10817 10818 10818 10820 10827 10831 10835 10839 10843 10852 10845 10848 10855 10856 10858 10853 10864 10866 10872 10870 10874 10877 10876 10879 10881 10881 10882 10890 10887 10901 10911 10917 10926 10930
10825 10821 10817 10813 10809 10806 10802 10800 10797 10796 10798 10798 10796 10797 10798 10799 10799 10809 10812 10816 10820 10823 10838 10836 10837 10841 10842 10845 10845 10850 10858 10863 10863 10868 10868 10869 10873 10874 10875 10878 10878 10879 10892 10900 10907 10918 10928
10804 10799 10794 10790 10785 10782 10779 10778 10776 10773 10772 10774 10771 10772 10771 10776 10782 10788 10783 10794 10796 10808 10817 10819 10825 10823 10825 10826 10832 10837 10845 10851 10853 10856 10857 10860 10866 10868 10870 10871 10871 10875 10881 10890 10900 10911 10914
10783 10777 10771 10765 10759 10755 10751 10749 10747 10744 10745 10748 10746 10741 10738 10758 10756 10761 10761 10767 10779 10792 10792 10799 10802 10803 10806 10813 10817 10825 10833 10841 10844 10846 10843 10852 10855 10857 10860 10863 10866 10869 10875 10882 10885 10893 10899
10760 10754 10747 10740 10732 10726 10721 10718 10717 10714 10714 10717 10717 10710 10712 10724 10728 10730 10736 10744 10758 10762 10771 10775 10776 10781 10789 10792 10801 10810 10818 10823 10824 10829 10832 10840 10846 10846 10854 10854 10863 10863 10870 10867 10881 10885 10896
10741 10732 10723 10715 10707 10699 10693 10689 10687 10683 10680 10682 10683 10677 10682 10689 10697 10701 10706 10719 10727 10733 10742 10747 10748 10762 10770 10775 10781 10789 10797 10806 10811 10817 10820 10831 10835 10839 10843 10849 10856 10860 10857 10866 10873 10877 10883
10719 10709 10699 10689 10679 10670 10663 10658 10655 10652 10647 10647 10648 10646 10653 10654 10657 10663 10673 10685 10694 10698 10707 10717 10725 10734 10746 10754 10761 10766 10773 10788 10796 10801 10807 10816 10826 10827 10833 10846 10845 10848 10854 10859 10864 10871 10873
10698 10687 10675 10662 10650 10640 10631 10623 10618 10615 10610 10610 10611 10610 10617 10618 10622 10627 10638 10649 10661 10667 10676 10693 10702 10713 10719 10730 10741 10747 10753 10759 10777 10785 10791 10799 10813 10816 10822 10827 10831 10838 10846 10853 10858 10864 10867
10675 10659 10642 10626 10610 10596 10586 10579 10574 10571 10569 10568 10570 10572 10578 10582 10586 10592 10599 10608 10620 10635 10639 10654 10669 10680 10692 10699 10711 10725 10735 10735 10752 10763 10769 10781 10794 10802 10805 10811 10819 10828 10836 10843 10850 10855 10863
10638 10617 10598 10581 10566 10553 10542 10534 10529 10525 10522 10524 10528 10533 10533 10545 10547 10556 10563 10570 10582 10594 10603 10616 10634 10649 10662 10671 10679 10692 10710 10716 10725 10739 10748 10758 10771 10783 10792 10791 10801 10813 10821 10828 10836 10847 10854
10598 10575 10555 10534 10515 10505 10493 10485 10479 10475 10471 10473 10477 10484 10489 10495 10509 10516 10525 10535 10547 10555 10567 10578 10592 10613 10628 10638 10648 10658 10677 10695 10704 10713 10722 10734 10750 10759 10771 10779 10781 10795 10806 10815 10830 10837 10842
10562 10536 10513 10494 10476 10462 10452 10441 10434 10431 10425 10426 10428 10433 10441 10447 10463 10474 10489 10498 10508 10518 10531 10539 10555 10574 10590 10604 10615 10631 10645 10662 10674 10687 10695 10709 10723 10735 10752 10758 10760 10773 10791 10806 10816 10822 10828
10524 10498 10477 10458 10441 10428 10418 10409 10403 10398 10393 10392 10391 10393 10396 10403 10416 10427 10443 10457 10468 10480 10491 10501 10518 10536 10549 10566 10584 10597 10609 10628 10644 10655 10667 10686 10699 10712 10730 10733 10740 10756 10789 10788 10795 10802 10811
10491 10469 10449 10432 10417 10404 10393 10384 10378 10373 10369 10366 10362 10364 10366 10368 10379 10389 10402 10413 10423 10438 10454 10467 10483 10500 10509 10526 10547 10561 10577 10595 10609 10624 10636 10657 10672 10685 10707 10706 10717 10768 10758 10763 10772 10780 10792
10468 10446 10429 10414 10400 10387 10376 10367 10359 10354 10349 10344 10343 10342 10342 10346 10353 10358 10368 10380 10387 10398 10414 10426 10441 10463 10478 10492 10510 10526 10544 10560 10579 10595 10607 10625 10633 10659 10675 10688 10714 10734 10729 10735 10746 10765 10775
10449 10431 10413 10397 10385 10374 10363 10354 10346 10340 10334 10329 10327 10323 10324 10328 10331 10334 10344 10350 10359 10368 10381 10387 10404 10427 10448 10460 10472 10487 10511 10529 10548 10565 10580 10582 10602 10619 10646 10667 10686 10706 10710 10719 10727 10743 10768
10436 10418 10402 10388 10375 10364 10354 10345 10336 10329 10322 10317 10313 10311 10309 10308 10309 10315 10323 10330 10338 10345 10354 10362 10374 10392 10411 10425 10440 10462 10482 10494 10515 10534 10550 10551 10563 10585 10616 10639 10666 10683 10693 10702 10702 10745 10750
10428 10411 10395 10382 10370 10358 10347 10338 10330 10323 10315 10308 10303 10300 10298 10297 10298 10301 10306 10310 10318 10325 10335 10343 10354 10366 10381 10394 10405 10424 10450 10462 10480 10500 10510 10520 10536 10551 10585 10609 10636 10657 10670 10677 10695 10716 10728
10422 10406 10391 10378 10367 10356 10346 10336 10326 10318 10312 10306 10300 10295 10291 10290 10291 10293 10297 10301 10306 10313 10320 10326 10335 10345 10355 10367 10379 10394 10409 10427 10444 10463 10476 10491 10516 10535 10554 10585 10616 10630 10647 10655 10671 10694 10707